Monterrey Airport, Mexico

2:25 AM CDT on September 21, 2017 (GMT -0500)
Del Norte International

Weather History for MMAN - June, 2013

Change the Weather History Date:

Tuesday, June 25, 2013

  Actual Average Record
Temperature  
Mean Temperature 90 °F -  
Max Temperature 104 °F 96 °F 104 °F (2003)
Min Temperature 75 °F 74 °F 69 °F (1997)
Cooling Degree Days 24    
Growing Degree Days 40 (Base 50)    
Moisture  
Dew Point 65 °F    
Average Humidity 49    
Maximum Humidity 78    
Minimum Humidity 25    
Precipitation  
Precipitation 0.00 in - - ()
Sea Level Pressure  
Sea Level Pressure 29.90 in    
Wind  
Wind Speed 9 mph ()    
Max Wind Speed 20 mph    
Max Gust Speed -    
Visibility 7.5 miles    
Events      
Averages and records for this station are not official NWS values.
T = Trace of Precipitation, MM = Missing Value Source: Averaged Metar Reports

Daily Weather History Graph

Daily Weather History Graph

Search for Another Location

Airport or City:

Trip Planner

Search our weather history database for the weather conditions in past years. The results will help you decide how hot, cold, wet, or windy it might be!

Date:

Astronomy

Jun. 25, 2013 Rise Set
Actual Time 6:51 AM CDT 8:36 PM CDT
Civil Twilight 6:25 AM CDT 9:02 PM CDT
Nautical Twilight 5:53 AM CDT 9:33 PM CDT
Astronomical Twilight 5:20 AM CDT 10:06 PM CDT
Moon 10:42 PM CDT (6/25) 9:17 AM CDT (6/25)
Length of Visible Light 14h 37m
Length of Day
13h 45m
Waning Gibbous, 92% of the Moon is Illuminated
Jun 25
Waning Gibbous
Jun 29
Last Quarter
Jul 8
New
Jul 15
First Quarter
Jul 22
Full

Hourly Weather History & Observations

Time (CDT) Temp. Heat Index Dew Point Humidity Pressure Visibility Wind Dir Wind Speed Gust Speed Precip Events Conditions
5:40 AM 75.2 °F - 66.2 °F 73% 29.98 in 7.0 mi ESE 9.2 mph - N/A   Overcast
6:40 AM 77.0 °F - 69.8 °F 78% 29.85 in 7.0 mi East 6.9 mph - N/A   Overcast
7:40 AM 77.0 °F - 69.8 °F 78% 30.01 in 7.0 mi East 8.1 mph - N/A   Overcast
8:40 AM 77.0 °F - 69.8 °F 78% 30.02 in 7.0 mi East 8.1 mph - N/A   Overcast
9:40 AM 80.6 °F 83.2 °F 68.0 °F 65% 29.88 in 5.0 mi East 4.6 mph - N/A   Mostly Cloudy
10:40 AM 84.2 °F 88.4 °F 69.8 °F 62% 30.02 in 5.0 mi Calm Calm - N/A   Mostly Cloudy
11:40 AM 87.8 °F 92.6 °F 69.8 °F 55% 30.01 in 5.0 mi South 8.1 mph - N/A   Mostly Cloudy
12:40 PM 93.2 °F 97.7 °F 68.0 °F 44% 29.85 in 5.0 mi SSE 12.7 mph - N/A   Clear
1:41 PM 96.8 °F 100.7 °F 66.2 °F 37% 29.97 in 5.0 mi East 9.2 mph - N/A   Clear
2:40 PM 100.4 °F 103.6 °F 64.4 °F 31% 29.95 in 5.0 mi ESE 17.3 mph - N/A   Clear
3:40 PM 102.2 °F 108.4 °F 68.0 °F 33% 29.78 in 6.0 mi SE 16.1 mph - N/A   Clear
4:40 PM 104.0 °F 108.9 °F 66.2 °F 29% 29.90 in 6.0 mi SE 16.1 mph - N/A   Clear
5:40 PM 98.6 °F 97.6 °F 57.2 °F 25% 29.87 in 6.0 mi East 12.7 mph - N/A   Mostly Cloudy
6:40 PM 96.8 °F 95.8 °F 57.2 °F 27% 29.72 in 8.0 mi ESE 9.2 mph - N/A   Mostly Cloudy
7:40 PM 95.0 °F 93.7 °F 57.2 °F 28% 29.87 in 10.0 mi SE 11.5 mph - N/A   Mostly Cloudy
8:40 PM 93.2 °F 91.9 °F 57.2 °F 30% 29.88 in 12.0 mi SE 8.1 mph - N/A   Scattered Clouds
9:40 PM 91.4 °F 90.7 °F 59.0 °F 34% 29.75 in 12.0 mi East 19.6 mph - N/A   Scattered Clouds
10:40 PM 86.0 °F 89.4 °F 68.0 °F 55% 29.93 in 12.0 mi East 18.4 mph - N/A   Clear
11:40 PM 82.4 °F 86.3 °F 69.8 °F 66% 29.95 in 12.0 mi ESE 10.4 mph - N/A   Clear